Weather History for KHYX - December, 2013

Change the Weather History Date:

Sunday, December 29, 2013

  Actual Average (KMBS) Record (KMBS)
Temperature  
Mean Temperature 27 °F 24 °F  
Max Temperature 37 °F 30 °F 44 °F (2003)
Min Temperature 17 °F 18 °F 8 °F (1998)
Degree Days  
Heating Degree Days 38    
Month to date heating degree days  
Since 1 July heating degree days  
Cooling Degree Days 0    
Month to date cooling degree days  
Year to date cooling degree days  
Moisture  
Dew Point 25 °F    
Average Humidity 80    
Maximum Humidity 100    
Minimum Humidity 68    
Precipitation  
Precipitation 0.00 in 0.06 in 0.14 in (1998)
Month to date precipitation 1.75  
Year to date precipitation 31.43  
Snow  
Snow 0.00 in - - ()
Month to date snowfall  
Since 1 July snowfall  
Snow Depth -    
Sea Level Pressure  
Sea Level Pressure 29.80 in    
Wind  
Wind Speed 12 mph (West)    
Max Wind Speed 20 mph    
Max Gust Speed 25 mph    
Visibility 9 miles    
Events Snow    
T = Trace of Precipitation, MM = Missing Value Source: NWS Daily Summary

Daily Weather History Graph

Daily Weather History Graph

Search for Another Location

Airport or City:

Trip Planner

Search our weather history database for the weather conditions in past years. The results will help you decide how hot, cold, wet, or windy it might be!

Date:

Astronomy

Dec. 29, 2013 Rise Set
Actual Time 8:07 AM EST 5:07 PM EST
Civil Twilight 7:35 AM EST 5:40 PM EST
Nautical Twilight 6:59 AM EST 6:16 PM EST
Astronomical Twilight 6:24 AM EST 6:51 PM EST
Moon 4:48 AM EST (12/29) 2:47 PM EST (12/29)
Length of Visible Light 10h 04m
Length of Day
8h 59m
Waning Crescent, 11% of the Moon is Illuminated
Dec 29
Waning Crescent
Jan 1
New
Jan 7
First Quarter
Jan 15
Full
Jan 24
Last Quarter

Hourly Weather History & Observations

Time (EST) Temp. Windchill Dew Point Humidity Pressure Visibility Wind Dir Wind Speed Gust Speed Precip Events Conditions
12:15 AM 37.4 °F 28.9 °F 32.0 °F 81% 29.81 in 10.0 mi SSW 13.8 mph - N/A   Clear
12:35 AM 37.4 °F 29.8 °F 32.0 °F 81% 29.80 in 10.0 mi SSW 11.5 mph - N/A   Clear
12:55 AM 37.4 °F 29.3 °F 32.0 °F 81% 29.79 in 10.0 mi SSW 12.7 mph - N/A   Clear
1:15 AM 37.4 °F 29.8 °F 30.2 °F 75% 29.79 in 10.0 mi SW 11.5 mph - N/A   Clear
1:35 AM 37.4 °F 29.3 °F 30.2 °F 75% 29.79 in 10.0 mi SW 12.7 mph - N/A   Clear
1:55 AM 37.4 °F 29.3 °F 30.2 °F 75% 29.78 in 10.0 mi SSW 12.7 mph - N/A   Clear
2:15 AM 37.4 °F 28.9 °F 30.2 °F 75% 29.79 in 10.0 mi SW 13.8 mph - N/A   Clear
2:35 AM 35.6 °F 27.1 °F 30.2 °F 81% 29.79 in 10.0 mi SSW 12.7 mph - N/A   Clear
2:55 AM 37.4 °F 28.9 °F 30.2 °F 75% 29.79 in 10.0 mi SW 13.8 mph - N/A   Clear
3:15 AM 37.4 °F 29.3 °F 30.2 °F 75% 29.78 in 10.0 mi SSW 12.7 mph - N/A   Clear
3:35 AM 37.4 °F 29.3 °F 30.2 °F 75% 29.77 in 10.0 mi SSW 12.7 mph - N/A   Clear
3:55 AM 37.4 °F 29.8 °F 30.2 °F 75% 29.76 in 10.0 mi SSW 11.5 mph - N/A   Clear
4:15 AM 37.4 °F 29.8 °F 30.2 °F 75% 29.75 in 10.0 mi SW 11.5 mph - N/A   Clear
4:35 AM 35.6 °F 28.0 °F 30.2 °F 81% 29.74 in 10.0 mi SSW 10.4 mph - N/A   Clear
4:55 AM 35.6 °F 28.0 °F 30.2 °F 81% 29.74 in 10.0 mi SW 10.4 mph - N/A   Clear
5:15 AM 35.6 °F 28.0 °F 30.2 °F 81% 29.74 in 10.0 mi SSW 10.4 mph - N/A   Clear
5:35 AM 35.6 °F 28.6 °F 30.2 °F 81% 29.73 in 10.0 mi SSW 9.2 mph - N/A   Clear
5:55 AM 35.6 °F 28.6 °F 30.2 °F 81% 29.73 in 10.0 mi South 9.2 mph - N/A   Clear
6:15 AM 35.6 °F 29.2 °F 30.2 °F 81% 29.73 in 10.0 mi SSW 8.1 mph - N/A   Clear
6:35 AM 37.4 °F 30.3 °F 30.2 °F 75% 29.73 in 10.0 mi SSW 10.4 mph - N/A   Clear
6:55 AM 35.6 °F 29.2 °F 30.2 °F 81% 29.73 in 10.0 mi SSW 8.1 mph - N/A   Clear
7:15 AM 35.6 °F 29.2 °F 30.2 °F 81% 29.73 in 10.0 mi SW 8.1 mph - N/A   Clear
7:35 AM 35.6 °F 29.2 °F 28.4 °F 75% 29.73 in 10.0 mi SW 8.1 mph - N/A   Clear
7:55 AM 35.6 °F 29.2 °F 28.4 °F 75% 29.73 in 10.0 mi SW 8.1 mph - N/A   Clear
8:15 AM 35.6 °F 28.0 °F 30.2 °F 81% 29.72 in 10.0 mi SSW 10.4 mph - N/A   Clear
8:34 AM 35.6 °F 28.0 °F 30.2 °F 81% 29.71 in 10.0 mi SSW 10.4 mph - N/A   Clear
8:55 AM 35.6 °F 29.9 °F 30.2 °F 81% 29.71 in 10.0 mi SW 6.9 mph - N/A   Clear
9:15 AM 35.6 °F 29.9 °F 28.4 °F 75% 29.71 in 10.0 mi SW 6.9 mph - N/A   Clear
9:34 AM 35.6 °F 29.2 °F 30.2 °F 81% 29.71 in 10.0 mi SW 8.1 mph - N/A   Clear
9:55 AM 35.6 °F 30.7 °F 28.4 °F 75% 29.71 in 10.0 mi SW 5.8 mph - N/A   Clear
10:15 AM 35.6 °F 30.7 °F 28.4 °F 75% 29.71 in 10.0 mi WSW 5.8 mph - N/A   Clear
10:34 AM 35.6 °F 30.7 °F 28.4 °F 75% 29.71 in 10.0 mi WSW 5.8 mph - N/A   Clear
10:55 AM 35.6 °F 29.9 °F 30.2 °F 81% 29.71 in 10.0 mi WSW 6.9 mph - N/A   Mostly Cloudy
11:15 AM 37.4 °F 30.3 °F 30.2 °F 75% 29.72 in 10.0 mi West 10.4 mph - N/A   Overcast
11:35 AM 37.4 °F 29.8 °F 32.0 °F 81% 29.71 in 10.0 mi WNW 11.5 mph - N/A   Overcast
11:55 AM 35.6 °F 31.7 °F 32.0 °F 87% 29.70 in 10.0 mi West 4.6 mph - N/A   Mostly Cloudy
12:15 PM 37.4 °F 30.3 °F 32.0 °F 81% 29.70 in 10.0 mi WNW 10.4 mph - N/A   Mostly Cloudy
12:35 PM 35.6 °F 29.2 °F 32.0 °F 87% 29.70 in 7.0 mi WNW 8.1 mph - N/A   Overcast
12:55 PM 35.6 °F 30.7 °F 32.0 °F 87% 29.70 in 7.0 mi WNW 5.8 mph - N/A   Overcast
1:15 PM 33.8 °F 22.5 °F 32.0 °F 93% 29.71 in 7.0 mi NNW 19.6 mph 25.3 mph N/A   Overcast
1:35 PM 32.0 °F 21.2 °F 30.2 °F 93% 29.71 in 7.0 mi NW 16.1 mph - N/A   Overcast
1:55 PM 32.0 °F 21.2 °F 32.0 °F 100% 29.72 in 2.5 mi NW 16.1 mph - N/A   Overcast
2:15 PM 30.2 °F 17.8 °F 30.2 °F 100% 29.73 in 4.0 mi NW 19.6 mph 24.2 mph N/A   Overcast
2:35 PM 30.2 °F 19.3 °F 30.2 °F 100% 29.73 in 1.8 mi NW 15.0 mph - N/A   Overcast
2:55 PM 30.2 °F 18.9 °F 28.4 °F 93% 29.75 in 2.0 mi NW 16.1 mph 21.9 mph N/A   Overcast
3:15 PM 28.4 °F 18.5 °F 28.4 °F 100% 29.76 in 1.2 mi North 11.5 mph 20.7 mph N/A Snow Light Snow
3:35 PM 26.6 °F 17.5 °F 26.6 °F 100% 29.77 in 1.8 mi North 9.2 mph - N/A Snow Light Snow
3:55 PM 26.6 °F 16.8 °F 26.6 °F 100% 29.79 in 2.0 mi North 10.4 mph - N/A   Overcast
4:15 PM 26.6 °F 16.8 °F 26.6 °F 100% 29.80 in 2.0 mi North 10.4 mph - N/A   Overcast
4:35 PM 26.6 °F 16.8 °F 26.6 °F 100% 29.80 in 2.0 mi NNW 10.4 mph - N/A Snow Light Snow
4:55 PM 26.6 °F 16.8 °F 21.2 °F 80% 29.82 in 10.0 mi NNW 10.4 mph - N/A   Overcast
5:15 PM 24.8 °F 12.9 °F 21.2 °F 86% 29.83 in 10.0 mi NW 13.8 mph - N/A   Overcast
5:35 PM 24.8 °F 11.5 °F 19.4 °F 80% 29.84 in 10.0 mi NW 17.3 mph - N/A   Overcast
5:55 PM 23.0 °F 9.6 °F 19.4 °F 86% 29.85 in 10.0 mi NNW 16.1 mph - N/A   Overcast
6:15 PM 23.0 °F 12.4 °F 17.6 °F 80% 29.86 in 10.0 mi NW 10.4 mph - N/A   Overcast
6:35 PM 23.0 °F 8.7 °F 14.0 °F 68% 29.88 in 10.0 mi NNW 18.4 mph 21.9 mph N/A   Overcast
6:55 PM 23.0 °F 9.2 °F 14.0 °F 68% 29.89 in 10.0 mi NW 17.3 mph 25.3 mph N/A   Overcast
7:15 PM 21.2 °F 7.3 °F 14.0 °F 74% 29.89 in 10.0 mi NW 16.1 mph 24.2 mph N/A   Overcast
7:35 PM 21.2 °F 6.8 °F 14.0 °F 74% 29.91 in 10.0 mi NW 17.3 mph 24.2 mph N/A   Overcast
7:55 PM 21.2 °F 9.5 °F 14.0 °F 74% 29.91 in 10.0 mi NNW 11.5 mph - N/A   Overcast
8:15 PM 21.2 °F 10.9 °F 14.0 °F 74% 29.93 in 10.0 mi NNW 9.2 mph - N/A   Overcast
8:35 PM 21.2 °F 10.1 °F 14.0 °F 74% 29.94 in 10.0 mi NNW 10.4 mph - N/A   Overcast
8:55 PM 19.4 °F 6.0 °F 12.2 °F 74% 29.95 in 10.0 mi NNW 13.8 mph 20.7 mph N/A   Overcast
9:15 PM 19.4 °F 6.0 °F 12.2 °F 74% 29.96 in 10.0 mi NW 13.8 mph - N/A   Overcast
9:35 PM 19.4 °F 7.9 °F 12.2 °F 74% 29.96 in 10.0 mi NNW 10.4 mph - N/A   Overcast
9:55 PM 19.4 °F 6.0 °F 10.4 °F 68% 29.97 in 10.0 mi NNW 13.8 mph - N/A   Overcast
10:15 PM 19.4 °F 6.0 °F 10.4 °F 68% 29.98 in 10.0 mi NNW 13.8 mph - N/A   Overcast
10:35 PM 17.6 °F 3.7 °F 8.6 °F 68% 29.99 in 10.0 mi NNW 13.8 mph 21.9 mph N/A   Overcast
10:55 PM 17.6 °F 6.4 °F 10.4 °F 73% 30.00 in 10.0 mi NNW 9.2 mph 18.4 mph N/A   Overcast
11:15 PM 17.6 °F 4.3 °F 8.6 °F 68% 30.01 in 10.0 mi NNW 12.7 mph 18.4 mph N/A   Overcast
11:35 PM 17.6 °F 3.7 °F 8.6 °F 68% 30.01 in 10.0 mi NNW 13.8 mph - N/A   Overcast
11:55 PM 17.6 °F 6.4 °F 8.6 °F 68% 30.02 in 10.0 mi North 9.2 mph - N/A   Overcast